Retour au catalogue

QIANFAN-126

ActifCommunicationsPO
NORAD 68653·PAYLOAD·🇨🇳 China

Lancé Apr 7, 2026 depuis Wenchang Space Launch Site

Loading…

Prochains Passages (prochaines 24 heures)

TLE

FraisSource: Space-Track

Époque: Sep 14, 2026, 21:33 UTC

1 68653U 26075T   26257.89822765  .00000063  00000-0  79154-4 0  9996
2 68653  88.9876 311.8070 0002235  83.6584 276.4821 13.51028983 21948

Suivez QIANFAN-126 en temps réel avec AllMySat

Download on the App Store